Regional Weather Roundup
Issued by NWS

Home | Current Version | Previous Version | Graphics & Text | Print | Product List | Glossary On
Versions: 1 2 3 4 5 6 7 8 9 10 11 12 13 14 15 16 17 18 19 20 21 22 23 24 25 26 27 28 29 30 31 32 33 34 35 36 37 38 39 40 41 42 43 44 45 46 47 48 49 50
634
ASUS44 KLIX 270405
RWRLA
LOUISIANA WEATHER ROUNDUP
NATIONAL WEATHER SERVICE NEW ORLEANS LA
1000 PM CST WED NOV 26 2014

NOTE: "FAIR" INDICATES FEW OR NO CLOUDS BELOW 12,000 FEET WITH NO
      SIGNIFICANT WEATHER AND/OR OBSTRUCTIONS TO VISIBILITY.
      SKY/WX - SKY CONDITION AND SIGNIFICANT WEATHER.
      TMP - AIR TEMPERATURE.    DP   - DEWPOINT TEMPERATURE.
      RH  - RELATIVE HUMIDITY.  PRES - PRESSURE.
      HX  - HEAT INDEX.         WCI  - WIND CHILL INDEX.

*  THESE STATIONS ARE NOT NWS OR FAA STATIONS AND ARE NOT UNDER
   NWS QUALITY CONTROL.

LAZ040-048-061>063-065-066-069-270500-
SOUTHEAST LOUISIANA

CITY           SKY/WX    TMP DP  RH WIND       PRES   REMARKS
N.O. AUDUBON     N/A     53  47  82 MISG        N/A
N.O. INTL ARPT CLEAR     56  46  69 W10       30.25R
N.O. LAKEFRONT CLEAR     58  47  66 SW14      30.24S
N.O. DOWNTOWN* FAIR      55  43  62 S7        30.25S
SLIDELL        CLEAR     58  47  66 SW6       30.23R
BATON ROUGE    CLEAR     50  43  77 W7        30.25R
BOOTHVILLE     CLEAR     62  51  67 W13       30.27S
BELLE CHASSE   CLEAR     57  47  69 SW7       30.25R
BOGALUSA*        N/A     54  40  59 W5        30.24R
NEW ROADS*     FAIR      51  43  74 SW5       30.26R
GONZALES*      FAIR      55  49  80 CALM      30.26R
HAMMOND*       CLEAR     57  41  54 W7        30.25R
HOUMA*         CLEAR     54  50  88 SW3       30.27S
PORT FOURCHON* CLEAR     63  54  72 W12G18    30.31S

$$

LAZ041-044-053-054-270500-
SOUTHWEST LOUISIANA

CITY           SKY/WX    TMP DP  RH WIND       PRES   REMARKS
LAKE CHARLES   CLEAR     53  47  79 W6        30.27R
LAFAYETTE      CLEAR     57  49  74 W10       30.26R
PATTERSON      CLEAR     57  52  82 W14G20    30.29S
SALT POINT       N/A     63  56  78 W6        30.27S
NEW IBERIA     CLEAR     58  50  75 SW9       30.27R
CHENAULT AIRPK CLEAR     56  46  67 SW7       30.27R

$$

LAZ027-028-270500-
CENTRAL LOUISIANA

CITY           SKY/WX    TMP DP  RH WIND       PRES   REMARKS
FORT POLK      CLEAR     49  42  77 S2        30.27R
ALEXANDRIA INT CLEAR     49  41  74 W6        30.25R
ALEXANDRIA     CLEAR     44  40  85 CALM      30.26R

$$

LAZ001-002-270500-
NORTHWEST LOUISIANA

CITY           SKY/WX    TMP DP  RH WIND       PRES   REMARKS
SHREVEPORT     CLEAR     49  35  58 W7        30.29R
BARKSDALE AFB  CLEAR     47  33  59 NW8       30.29R
DTN SHREVEPORT CLEAR     50  31  48 CALM      30.29R

$$

LAZ014-016-270500-
NORTHEAST LOUISIANA

CITY           SKY/WX    TMP DP  RH WIND       PRES   REMARKS
MONROE         CLEAR     49  36  61 NW3       30.27R
TALLULAH       CLEAR     49  36  61 NW8       30.25R

$$




USA.gov is the U.S. government's official web portal to all federal, state and local government web resources and services.